| time (UTC) | temp F | wind direction | speed MPH | gust MPH | rain 1hr in | rain 24hr in | rain mn in | humidity % | barometer mb |
| 20260504185520 | 72 | 347 | 3.0 | 6.0 | 0.01 | 0.01 | 0.01 | 39 | 1010.6 |
| 20260504185017 | 71 | 122 | 3.0 | 6.0 | 0.01 | 0.01 | 0.01 | 38 | 1010.6 |
| 20260504184517 | 72 | 142 | 3.0 | 8.0 | 0.00 | 0.01 | 0.00 | 37 | 1010.7 |
| 20260504184018 | 71 | 353 | 2.0 | 8.0 | 0.00 | 0.01 | 0.00 | 38 | 1010.8 |
| 20260504183537 | 71 | 10 | 3.0 | 9.0 | 0.00 | 0.01 | 0.00 | 38 | 1010.9 |
| 20260504183038 | 71 | 336 | 5.0 | 11.0 | 0.00 | 0.01 | 0.00 | 38 | 1011.0 |
| 20260504182518 | 71 | 323 | 4.0 | 9.0 | 0.00 | 0.01 | 0.00 | 38 | 1011.0 |
| 20260504182018 | 71 | 347 | 4.0 | 11.0 | 0.00 | 0.01 | 0.00 | 38 | 1011.1 |
| 20260504181521 | 71 | 336 | 4.0 | 10.0 | 0.00 | 0.01 | 0.00 | 39 | 1011.1 |
| 20260504181021 | 70 | 333 | 4.0 | 9.0 | 0.00 | 0.01 | 0.00 | 38 | 1011.2 |
| 20260504180538 | 70 | 89 | 3.0 | 9.0 | 0.00 | 0.01 | 0.00 | 39 | 1011.3 |
| 20260504180018 | 70 | 332 | 3.0 | 9.0 | 0.00 | 0.01 | 0.00 | 40 | 1011.3 |
| 20260504175518 | 70 | 357 | 4.0 | 11.0 | 0.00 | 0.01 | 0.00 | 39 | 1011.4 |
| 20260504175018 | 70 | 357 | 3.0 | 7.0 | 0.00 | 0.01 | 0.00 | 39 | 1011.6 |
| 20260504174518 | 71 | 60 | 4.0 | 9.0 | 0.00 | 0.01 | 0.00 | 39 | 1011.7 |
| 20260504174019 | 70 | 107 | 3.0 | 9.0 | 0.00 | 0.01 | 0.00 | 39 | 1011.6 |
| 20260504173538 | 70 | 326 | 3.0 | 9.0 | 0.00 | 0.01 | 0.00 | 40 | 1011.7 |
| 20260504173019 | 70 | 66 | 3.0 | 8.0 | 0.00 | 0.01 | 0.00 | 41 | 1011.7 |
| 20260504172519 | 69 | 320 | 3.0 | 7.0 | 0.00 | 0.01 | 0.00 | 41 | 1011.7 |
| 20260504172018 | 69 | 94 | 3.0 | 8.0 | 0.00 | 0.01 | 0.00 | 40 | 1011.7 |
| 20260504171519 | 69 | 111 | 3.0 | 10.0 | 0.00 | 0.01 | 0.00 | 39 | 1011.9 |
| 20260504171019 | 70 | 111 | 3.0 | 10.0 | 0.00 | 0.01 | 0.00 | 40 | 1011.9 |
| 20260504170519 | 70 | 347 | 3.0 | 9.0 | 0.00 | 0.01 | 0.00 | 39 | 1012.0 |
| 20260504151019 | 65 | 122 | 4.0 | 8.0 | 0.00 | 0.01 | 0.00 | 44 | 1013.3 |
| 20260504150558 | 65 | 105 | 4.0 | 9.0 | 0.00 | 0.01 | 0.00 | 44 | 1013.2 |
| 20260504141019 | 63 | 143 | 3.0 | 6.0 | 0.00 | 0.01 | 0.00 | 53 | 1013.5 |
| 20260504140519 | 63 | 82 | 2.0 | 8.0 | 0.00 | 0.01 | 0.00 | 52 | 1013.5 |
| 20260504130540 | 59 | 121 | 2.0 | 6.0 | 0.00 | 0.01 | 0.00 | 58 | 1014.1 |
| 20260504110525 | 45 | 125 | 2.0 | 3.0 | 0.00 | 0.01 | 0.00 | 81 | 1014.8 |
| 20260504100518 | 43 | 136 | 1.0 | 5.0 | 0.00 | 0.01 | 0.00 | 76 | 1014.3 |
| 20260504081517 | 42 | 139 | 1.0 | 3.0 | 0.00 | 0.01 | 0.00 | 75 | 1014.1 |
| 20260504081017 | 42 | 137 | 2.0 | 4.0 | 0.00 | 0.01 | 0.00 | 74 | 1014.1 |
| 20260504080517 | 42 | 140 | 2.0 | 3.0 | 0.00 | 0.01 | 0.00 | 76 | 1014.1 |
| 20260504050520 | 44 | 141 | 2.0 | 3.0 | 0.00 | 0.01 | 0.00 | 69 | 1013.8 |
| 20260504050020 | 44 | 139 | 1.0 | 2.0 | 0.00 | 0.01 | 0.00 | 69 | 1013.8 |
| 20260504045520 | 44 | 135 | 2.0 | 3.0 | 0.00 | 0.01 | 0.00 | 70 | 1013.9 |
| 20260504045020 | 45 | 141 | 2.0 | 3.0 | 0.00 | 0.01 | 0.00 | 69 | 1013.8 |
| 20260504044520 | 45 | 138 | 2.0 | 3.0 | 0.00 | 0.01 | 0.00 | 70 | 1013.8 |
| 20260504044057 | 45 | 135 | 2.0 | 3.0 | 0.00 | 0.01 | 0.00 | 69 | 1013.7 |
| 20260504043517 | 45 | 137 | 2.0 | 3.0 | 0.00 | 0.01 | 0.00 | 69 | 1013.6 |
| 20260504043038 | 45 | 136 | 2.0 | 3.0 | 0.00 | 0.01 | 0.00 | 69 | 1013.6 |
| 20260504042518 | 45 | 138 | 2.0 | 3.0 | 0.00 | 0.01 | 0.00 | 69 | 1013.5 |
| 20260504042017 | 45 | 133 | 2.0 | 3.0 | 0.00 | 0.01 | 0.00 | 70 | 1013.5 |
| 20260504041558 | 45 | 133 | 2.0 | 3.0 | 0.00 | 0.01 | 0.00 | 69 | 1013.4 |
| 20260504041018 | 45 | 137 | 2.0 | 3.0 | 0.00 | 0.01 | 0.00 | 69 | 1013.4 |
| 20260504040521 | 45 | 135 | 2.0 | 3.0 | 0.00 | 0.01 | 0.00 | 68 | 1013.3 |
| 20260504040018 | 45 | 136 | 2.0 | 3.0 | 0.00 | 0.01 | 0.00 | 69 | 1013.3 |
| 20260504035538 | 45 | 135 | 2.0 | 3.0 | 0.00 | 0.01 | 0.01 | 68 | 1013.3 |
| 20260504035038 | 45 | 138 | 1.0 | 3.0 | 0.00 | 0.01 | 0.01 | 69 | 1013.3 |
| 20260504034518 | 45 | 139 | 2.0 | 3.0 | 0.00 | 0.01 | 0.01 | 69 | 1013.2 |
| 20260504034018 | 45 | 133 | 2.0 | 3.0 | 0.00 | 0.01 | 0.01 | 70 | 1013.2 |
| 20260504033518 | 45 | 142 | 2.0 | 3.0 | 0.00 | 0.01 | 0.01 | 69 | 1013.2 |
| 20260504033018 | 45 | 135 | 2.0 | 3.0 | 0.00 | 0.01 | 0.01 | 68 | 1013.2 |
| 20260504032559 | 46 | 136 | 2.0 | 3.0 | 0.00 | 0.01 | 0.01 | 68 | 1013.2 |
| 20260504032019 | 46 | 136 | 2.0 | 3.0 | 0.00 | 0.01 | 0.01 | 67 | 1013.1 |
| 20260504031519 | 46 | 133 | 2.0 | 3.0 | 0.00 | 0.01 | 0.01 | 67 | 1013.1 |
| 20260504031019 | 46 | 134 | 2.0 | 3.0 | 0.00 | 0.01 | 0.01 | 67 | 1013.0 |
| 20260504030520 | 46 | 135 | 2.0 | 3.0 | 0.00 | 0.01 | 0.01 | 67 | 1013.1 |
| 20260504030019 | 46 | 135 | 2.0 | 3.0 | 0.00 | 0.01 | 0.01 | 65 | 1013.0 |
| 20260504025519 | 46 | 142 | 2.0 | 3.0 | 0.00 | 0.01 | 0.01 | 65 | 1013.0 |
| 20260504025039 | 46 | 128 | 2.0 | 4.0 | 0.00 | 0.01 | 0.01 | 66 | 1013.0 |
| 20260504024539 | 46 | 138 | 2.0 | 3.0 | 0.00 | 0.01 | 0.01 | 67 | 1013.1 |
| 20260504024019 | 46 | 138 | 2.0 | 4.0 | 0.00 | 0.01 | 0.01 | 65 | 1013.1 |
| 20260504023517 | 46 | 135 | 2.0 | 3.0 | 0.00 | 0.01 | 0.01 | 67 | 1013.1 |
| 20260504023036 | 46 | 137 | 2.0 | 3.0 | 0.00 | 0.01 | 0.01 | 66 | 1013.1 |
| 20260504022520 | 47 | 143 | 2.0 | 3.0 | 0.00 | 0.01 | 0.01 | 65 | 1013.1 |
| 20260504022020 | 47 | 140 | 2.0 | 4.0 | 0.00 | 0.01 | 0.01 | 64 | 1013.0 |
| 20260504021520 | 47 | 135 | 2.0 | 3.0 | 0.00 | 0.01 | 0.01 | 65 | 1013.0 |
| 20260504021020 | 47 | 135 | 2.0 | 4.0 | 0.00 | 0.01 | 0.01 | 65 | 1013.0 |
| 20260504020520 | 47 | 140 | 2.0 | 3.0 | 0.00 | 0.01 | 0.01 | 65 | 1013.0 |
| 20260504020020 | 47 | 142 | 2.0 | 2.0 | 0.00 | 0.01 | 0.01 | 65 | 1013.0 |
| 20260504015520 | 47 | 148 | 2.0 | 4.0 | 0.00 | 0.01 | 0.01 | 65 | 1013.0 |
| 20260504015018 | 47 | 138 | 2.0 | 3.0 | 0.00 | 0.01 | 0.01 | 64 | 1012.9 |
| 20260504014517 | 47 | 139 | 2.0 | 4.0 | 0.00 | 0.01 | 0.01 | 65 | 1012.9 |
| 20260504014057 | 47 | 138 | 2.0 | 3.0 | 0.00 | 0.01 | 0.01 | 63 | 1012.9 |
| 20260504013517 | 47 | 140 | 2.0 | 3.0 | 0.00 | 0.01 | 0.01 | 63 | 1012.9 |
| 20260504013018 | 48 | 145 | 2.0 | 3.0 | 0.00 | 0.01 | 0.01 | 63 | 1012.8 |
| 20260504012541 | 48 | 138 | 2.0 | 3.0 | 0.00 | 0.01 | 0.01 | 63 | 1012.8 |
| 20260504012021 | 48 | 139 | 2.0 | 4.0 | 0.00 | 0.01 | 0.01 | 62 | 1012.7 |
| 20260504011521 | 48 | 141 | 2.0 | 3.0 | 0.00 | 0.01 | 0.01 | 62 | 1012.6 |
| 20260504011018 | 48 | 141 | 2.0 | 3.0 | 0.00 | 0.01 | 0.01 | 64 | 1012.5 |
| 20260504010518 | 48 | 141 | 2.0 | 3.0 | 0.00 | 0.01 | 0.01 | 63 | 1012.4 |
| 20260504010018 | 48 | 138 | 2.0 | 3.0 | 0.00 | 0.01 | 0.01 | 64 | 1012.3 |
| 20260504005518 | 49 | 144 | 2.0 | 3.0 | 0.00 | 0.01 | 0.01 | 62 | 1012.3 |
| 20260504005038 | 49 | 144 | 2.0 | 3.0 | 0.00 | 0.01 | 0.01 | 59 | 1012.3 |
| 20260504004518 | 49 | 143 | 2.0 | 3.0 | 0.00 | 0.01 | 0.01 | 58 | 1012.3 |
| 20260504004018 | 49 | 142 | 2.0 | 3.0 | 0.00 | 0.01 | 0.01 | 59 | 1012.2 |
| 20260504003518 | 50 | 144 | 2.0 | 3.0 | 0.00 | 0.01 | 0.01 | 60 | 1012.1 |
| 20260504003019 | 50 | 139 | 2.0 | 3.0 | 0.00 | 0.01 | 0.01 | 58 | 1012.1 |
| 20260504002539 | 51 | 143 | 2.0 | 2.0 | 0.00 | 0.01 | 0.01 | 57 | 1012.1 |
| 20260504002019 | 51 | 143 | 2.0 | 3.0 | 0.00 | 0.01 | 0.01 | 55 | 1012.0 |
| 20260504001519 | 51 | 141 | 2.0 | 3.0 | 0.00 | 0.01 | 0.01 | 57 | 1011.9 |
| 20260504001019 | 52 | 137 | 2.0 | 3.0 | 0.00 | 0.01 | 0.01 | 56 | 1011.8 |
| 20260504000559 | 52 | 141 | 2.0 | 3.0 | 0.00 | 0.01 | 0.01 | 55 | 1011.8 |
| 20260504000019 | 53 | 139 | 1.0 | 3.0 | 0.00 | 0.01 | 0.01 | 53 | 1011.7 |
| 20260503235519 | 53 | 145 | 1.0 | 3.0 | 0.00 | 0.01 | 0.01 | 52 | 1011.7 |
| 20260503235019 | 54 | 134 | 1.0 | 3.0 | 0.00 | 0.01 | 0.01 | 52 | 1011.6 |
| 20260503234519 | 54 | 133 | 1.0 | 3.0 | 0.00 | 0.01 | 0.01 | 50 | 1011.6 |
| 20260503234040 | 55 | 127 | 1.0 | 3.0 | 0.00 | 0.02 | 0.01 | 48 | 1011.6 |
| 20260503233516 | 56 | 134 | 1.0 | 3.0 | 0.00 | 0.02 | 0.01 | 47 | 1011.6 |
| 20260503233016 | 56 | 153 | 1.0 | 4.0 | 0.00 | 0.02 | 0.01 | 45 | 1011.6 |
| 20260503232520 | 57 | 155 | 1.0 | 5.0 | 0.00 | 0.02 | 0.01 | 44 | 1011.6 |
| 20260503232020 | 58 | 118 | 1.0 | 6.0 | 0.00 | 0.02 | 0.01 | 41 | 1011.6 |
| 20260503231519 | 58 | 329 | 1.0 | 3.0 | 0.00 | 0.02 | 0.01 | 39 | 1011.6 |
| 20260503231020 | 58 | 352 | 2.0 | 5.0 | 0.00 | 0.02 | 0.01 | 40 | 1011.5 |
| 20260503230520 | 59 | 296 | 1.0 | 3.0 | 0.00 | 0.02 | 0.01 | 38 | 1011.5 |
| 20260503230040 | 59 | 318 | 1.0 | 3.0 | 0.00 | 0.02 | 0.01 | 36 | 1011.4 |
| 20260503225517 | 59 | 342 | 2.0 | 5.0 | 0.00 | 0.02 | 0.01 | 37 | 1011.4 |
| 20260503225037 | 59 | 326 | 2.0 | 6.0 | 0.00 | 0.02 | 0.01 | 36 | 1011.4 |
| 20260503224518 | 59 | 322 | 2.0 | 7.0 | 0.00 | 0.02 | 0.01 | 37 | 1011.4 |
| 20260503224017 | 60 | 331 | 2.0 | 5.0 | 0.00 | 0.02 | 0.01 | 36 | 1011.3 |
| 20260503223517 | 60 | 329 | 1.0 | 6.0 | 0.00 | 0.02 | 0.01 | 34 | 1011.3 |
| 20260503223018 | 60 | 342 | 2.0 | 3.0 | 0.00 | 0.02 | 0.01 | 35 | 1011.3 |
| 20260503222521 | 60 | 347 | 2.0 | 5.0 | 0.00 | 0.02 | 0.01 | 34 | 1011.3 |
| 20260503222021 | 60 | 286 | 2.0 | 4.0 | 0.00 | 0.02 | 0.01 | 35 | 1011.3 |
| 20260503221518 | 60 | 309 | 2.0 | 5.0 | 0.00 | 0.02 | 0.01 | 36 | 1011.3 |
| 20260503221018 | 60 | 288 | 3.0 | 7.0 | 0.00 | 0.02 | 0.01 | 34 | 1011.4 |
| 20260503220518 | 61 | 354 | 2.0 | 5.0 | 0.00 | 0.02 | 0.01 | 33 | 1011.4 |
| 20260503220018 | 61 | 300 | 2.0 | 6.0 | 0.00 | 0.02 | 0.01 | 32 | 1011.4 |
| 20260503215518 | 61 | 332 | 2.0 | 4.0 | 0.00 | 0.02 | 0.01 | 32 | 1011.4 |
| 20260503215018 | 61 | 269 | 3.0 | 9.0 | 0.00 | 0.02 | 0.01 | 33 | 1011.4 |
| 20260503214518 | 61 | 299 | 2.0 | 6.0 | 0.00 | 0.02 | 0.01 | 34 | 1011.4 |
| 20260503214018 | 61 | 320 | 2.0 | 7.0 | 0.00 | 0.02 | 0.01 | 32 | 1011.4 |
| 20260503213518 | 60 | 305 | 3.0 | 9.0 | 0.00 | 0.02 | 0.01 | 34 | 1011.4 |
| 20260503213019 | 60 | 322 | 3.0 | 8.0 | 0.00 | 0.02 | 0.01 | 34 | 1011.3 |
| 20260503212539 | 60 | 319 | 2.0 | 7.0 | 0.00 | 0.02 | 0.01 | 34 | 1011.3 |
| 20260503212019 | 60 | 323 | 3.0 | 7.0 | 0.00 | 0.02 | 0.01 | 34 | 1011.3 |
| 20260503211519 | 60 | 346 | 3.0 | 8.0 | 0.00 | 0.02 | 0.01 | 33 | 1011.3 |
| 20260503211019 | 60 | 339 | 3.0 | 9.0 | 0.00 | 0.02 | 0.01 | 35 | 1011.4 |
| 20260503210519 | 60 | 304 | 3.0 | 10.0 | 0.00 | 0.02 | 0.01 | 35 | 1011.4 |
| 20260503210019 | 60 | 309 | 2.0 | 4.0 | 0.00 | 0.02 | 0.01 | 35 | 1011.5 |
| 20260503205559 | 60 | 309 | 3.0 | 9.0 | 0.00 | 0.02 | 0.01 | 35 | 1011.6 |
| 20260503205019 | 60 | 346 | 3.0 | 6.0 | 0.00 | 0.02 | 0.01 | 34 | 1011.6 |
| 20260503204519 | 60 | 326 | 3.0 | 8.0 | 0.00 | 0.02 | 0.01 | 34 | 1011.5 |
| 20260503204017 | 60 | 305 | 3.0 | 8.0 | 0.00 | 0.02 | 0.01 | 36 | 1011.5 |
| 20260503203516 | 60 | 319 | 2.0 | 4.0 | 0.01 | 0.02 | 0.01 | 36 | 1011.5 |
| 20260503203017 | 60 | 327 | 4.0 | 10.0 | 0.01 | 0.02 | 0.01 | 34 | 1011.5 |
| 20260503202520 | 60 | 348 | 3.0 | 7.0 | 0.01 | 0.02 | 0.01 | 34 | 1011.5 |
| 20260503202020 | 59 | 320 | 3.0 | 6.0 | 0.01 | 0.02 | 0.01 | 37 | 1011.5 |
| 20260503201520 | 58 | 341 | 3.0 | 7.0 | 0.01 | 0.02 | 0.01 | 37 | 1011.6 |
| 20260503201020 | 58 | 324 | 3.0 | 6.0 | 0.01 | 0.02 | 0.01 | 36 | 1011.6 |
| 20260503200520 | 58 | 316 | 3.0 | 10.0 | 0.01 | 0.02 | 0.01 | 35 | 1011.6 |
| 20260503200020 | 58 | 339 | 4.0 | 8.0 | 0.01 | 0.02 | 0.01 | 36 | 1011.8 |
| 20260503195517 | 58 | 324 | 3.0 | 6.0 | 0.01 | 0.02 | 0.01 | 36 | 1011.7 |
| 20260503195017 | 58 | 308 | 4.0 | 10.0 | 0.01 | 0.02 | 0.01 | 36 | 1011.7 |
| 20260503194517 | 59 | 326 | 2.0 | 7.0 | 0.01 | 0.02 | 0.01 | 37 | 1011.8 |
| 20260503194037 | 59 | 339 | 3.0 | 8.0 | 0.01 | 0.02 | 0.01 | 36 | 1011.8 |
| 20260503193518 | 59 | 352 | 3.0 | 7.0 | 0.00 | 0.01 | 0.00 | 35 | 1011.8 |
| 20260503193018 | 59 | 336 | 3.0 | 7.0 | 0.00 | 0.01 | 0.00 | 36 | 1011.8 |
| 20260503192521 | 59 | 314 | 3.0 | 8.0 | 0.00 | 0.01 | 0.00 | 36 | 1011.8 |
| 20260503192021 | 58 | 305 | 3.0 | 8.0 | 0.00 | 0.01 | 0.00 | 38 | 1011.9 |
| 20260503191518 | 58 | 336 | 2.0 | 6.0 | 0.00 | 0.01 | 0.00 | 37 | 1012.0 |
| 20260503191038 | 58 | 352 | 3.0 | 7.0 | 0.00 | 0.01 | 0.00 | 36 | 1012.0 |
| 20260503190538 | 58 | 300 | 3.0 | 7.0 | 0.00 | 0.01 | 0.00 | 38 | 1012.1 |
| 20260503190018 | 58 | 338 | 3.0 | 7.0 | 0.00 | 0.01 | 0.00 | 38 | 1012.1 |